Weather History for Lee's Summit, MO

Change the Weather History Date:

Monday, May 27, 2013

  Actual Average (KMKC) Record (KMKC)
Temperature  
Mean Temperature 71 °F -  
Max Temperature 80 °F 76 °F 91 °F (2006)
Min Temperature 62 °F 57 °F 51 °F (1997)
Cooling Degree Days 6    
Growing Degree Days 21 (Base 50)    
Moisture  
Dew Point 63 °F    
Average Humidity 83    
Maximum Humidity 100    
Minimum Humidity 64    
Precipitation  
Precipitation 2.01 in - - ()
Sea Level Pressure  
Sea Level Pressure 29.85 in    
Wind  
Wind Speed 10 mph (ESE)    
Max Wind Speed 20 mph    
Max Gust Speed 28 mph    
Visibility 7 miles    
Events Rain , Thunderstorm    
Averages and records for this station are not official NWS values.
T = Trace of Precipitation, MM = Missing Value Source: NWS Daily Summary

Daily Weather History Graph

Daily Weather History Graph

Search for Another Location

Airport:

Trip Planner

Search our weather history database for the weather conditions in past years. The results will help you decide how hot, cold, wet, or windy it might be!

Date:

Astronomy

May. 27, 2013 Rise Set
Actual Time 5:56 AM CDT 8:33 PM CDT
Civil Twilight 5:24 AM CDT 9:04 PM CDT
Nautical Twilight 4:46 AM CDT 9:43 PM CDT
Astronomical Twilight 4:02 AM CDT 10:27 PM CDT
Moon 11:14 PM CDT 8:33 AM CDT
Length of Visible Light 15h 39m
Length of Day
14h 37m
Waning Gibbous, 91% of the Moon is Illuminated
May 27
Waning Gibbous
May 31
Last Quarter
Jun 8
New
Jun 16
First Quarter
Jun 23
Full

Hourly Weather History & Observations

Time (CDT) Temp. Heat Index Dew Point Humidity Pressure Visibility Wind Dir Wind Speed Gust Speed Precip Events Conditions
12:53 AM 72.0 °F - 64.0 °F 76% 29.95 in 10.0 mi ESE 5.8 mph - N/A   Scattered Clouds
1:53 AM 73.0 °F - 63.0 °F 71% 29.94 in 10.0 mi SSE 8.1 mph - N/A   Overcast
2:53 AM 69.1 °F - 61.0 °F 75% 29.93 in 10.0 mi ESE 10.4 mph - N/A   Overcast
3:53 AM 68.0 °F - 60.1 °F 76% 29.90 in 10.0 mi SE 6.9 mph - N/A   Mostly Cloudy
4:26 AM 68.0 °F - 59.0 °F 73% 29.91 in 10.0 mi SE 6.9 mph - N/A   Overcast
4:53 AM 68.0 °F - 60.1 °F 76% 29.88 in 10.0 mi SE 10.4 mph - N/A   Overcast
5:53 AM 68.0 °F - 60.1 °F 76% 29.84 in 10.0 mi SSE 11.5 mph 17.3 mph N/A   Overcast
6:24 AM 69.8 °F - 60.8 °F 73% 29.87 in 10.0 mi SSE 11.5 mph 18.4 mph N/A   Overcast
6:53 AM 70.0 °F - 62.1 °F 76% 29.83 in 10.0 mi SSE 13.8 mph 24.2 mph N/A   Overcast
7:20 AM 69.8 °F - 62.6 °F 78% 29.85 in 10.0 mi South 16.1 mph 25.3 mph N/A   Scattered Clouds
7:33 AM 69.8 °F - 62.6 °F 78% 29.84 in 10.0 mi South 11.5 mph 21.9 mph N/A   Mostly Cloudy
7:53 AM 70.0 °F - 62.1 °F 76% 29.81 in 10.0 mi South 10.4 mph 18.4 mph N/A   Overcast
8:50 AM 66.2 °F - 60.8 °F 83% 29.90 in 6.0 mi North 17.3 mph 26.5 mph 0.01 in Rain , Thunderstorm Light Rain
8:53 AM 64.9 °F - 60.1 °F 84% 29.88 in 2.5 mi NNE 12.7 mph 26.5 mph 0.04 in Rain , Thunderstorm Heavy Rain
9:01 AM 64.4 °F - 60.8 °F 88% 29.89 in 1.2 mi NE 9.2 mph - 0.04 in Rain , Thunderstorm Rain
9:23 AM 64.4 °F - 60.8 °F 88% 29.88 in 3.0 mi ENE 11.5 mph - 0.19 in Rain , Thunderstorm Light Thunderstorms and Rain
9:45 AM 64.4 °F - 62.6 °F 94% 29.90 in 1.8 mi North 6.9 mph - 0.26 in Rain , Thunderstorm Heavy Thunderstorms and Rain
9:53 AM 64.0 °F - 62.1 °F 93% 29.89 in 1.5 mi NE 5.8 mph - 0.36 in Rain , Thunderstorm Heavy Thunderstorms and Rain
9:59 AM 64.4 °F - 62.6 °F 94% 29.92 in 2.5 mi North 9.2 mph - 0.04 in Rain , Thunderstorm Thunderstorms and Rain
10:04 AM 64.4 °F - 62.6 °F 94% 29.91 in 1.8 mi NE 9.2 mph - 0.15 in Rain , Thunderstorm Heavy Thunderstorms and Rain
10:14 AM 64.4 °F - 62.6 °F 94% 29.90 in 0.8 mi NE 13.8 mph - 0.36 in Rain , Thunderstorm Heavy Thunderstorms and Rain
10:19 AM 64.4 °F - 62.6 °F 94% 29.91 in 1.2 mi NE 13.8 mph - 0.40 in Rain , Thunderstorm Heavy Thunderstorms and Rain
10:29 AM 62.6 °F - 62.6 °F 100% 29.90 in 0.8 mi NNE 19.6 mph 25.3 mph 0.65 in Rain , Thunderstorm Heavy Thunderstorms and Rain
10:45 AM 62.6 °F - 60.8 °F 94% 29.90 in 1.8 mi NE 17.3 mph 27.6 mph 0.81 in Rain , Thunderstorm Thunderstorms and Rain
10:50 AM 62.6 °F - 60.8 °F 94% 29.92 in 3.0 mi NE 10.4 mph - 0.82 in Rain , Thunderstorm Thunderstorms and Rain
10:53 AM 63.0 °F - 62.1 °F 97% 29.91 in 2.5 mi NE 6.9 mph - 0.86 in Rain , Thunderstorm Thunderstorms and Rain
11:00 AM 62.6 °F - 62.6 °F 100% 29.93 in 0.8 mi East 13.8 mph 20.7 mph 0.19 in Rain , Thunderstorm Heavy Thunderstorms and Rain
11:11 AM 62.6 °F - 60.8 °F 94% 29.90 in 1.0 mi ENE 13.8 mph 19.6 mph 0.32 in Rain , Thunderstorm Heavy Thunderstorms and Rain
11:23 AM 62.6 °F - 62.6 °F 100% 29.93 in 1.8 mi East 6.9 mph 17.3 mph 0.44 in Rain , Thunderstorm Heavy Thunderstorms and Rain
11:53 AM 62.1 °F - 61.0 °F 96% 29.91 in 1.8 mi East 15.0 mph - 0.74 in Rain , Thunderstorm Heavy Thunderstorms and Rain
11:58 AM 62.6 °F - 60.8 °F 94% 29.92 in 3.0 mi ENE 15.0 mph - 0.00 in Rain , Thunderstorm Light Thunderstorms and Rain
12:06 PM 62.6 °F - 60.8 °F 94% 29.92 in 10.0 mi ENE 13.8 mph - 0.00 in Rain , Thunderstorm Light Rain
12:16 PM 62.6 °F - 60.8 °F 94% 29.90 in 10.0 mi ENE 11.5 mph - 0.00 in Rain Light Rain
12:53 PM 63.0 °F - 61.0 °F 93% 29.87 in 10.0 mi East 13.8 mph - 0.01 in   Overcast
1:37 PM 64.4 °F - 62.6 °F 94% 29.83 in 10.0 mi ESE 15.0 mph 24.2 mph N/A   Overcast
1:53 PM 64.9 °F - 62.1 °F 90% 29.80 in 10.0 mi SE 13.8 mph 20.7 mph N/A   Overcast
2:49 PM 69.8 °F - 64.4 °F 83% 29.79 in 10.0 mi SE 11.5 mph 19.6 mph N/A   Scattered Clouds
2:53 PM 69.1 °F - 64.0 °F 84% 29.77 in 10.0 mi SE 10.4 mph 18.4 mph N/A   Partly Cloudy
3:53 PM 75.9 °F - 66.9 °F 74% 29.74 in 10.0 mi South 11.5 mph 20.7 mph N/A   Clear
4:53 PM 78.1 °F - 68.0 °F 71% 29.70 in 10.0 mi South 11.5 mph 21.9 mph N/A   Scattered Clouds
5:53 PM 78.1 °F - 68.0 °F 71% 29.69 in 10.0 mi South 6.9 mph - N/A   Mostly Cloudy
6:53 PM 80.1 °F 82.3 °F 66.9 °F 64% 29.69 in 10.0 mi South 16.1 mph 25.3 mph N/A   Mostly Cloudy
7:53 PM 79.0 °F - 66.0 °F 64% 29.70 in 10.0 mi SSW 9.2 mph 23.0 mph N/A   Overcast
8:53 PM 78.1 °F - 64.9 °F 64% 29.71 in 10.0 mi SSW 10.4 mph 21.9 mph N/A   Overcast
9:53 PM 77.0 °F - 64.9 °F 66% 29.72 in 10.0 mi South 8.1 mph 16.1 mph N/A   Overcast
10:53 PM 77.0 °F - 64.9 °F 66% 29.74 in 10.0 mi South 15.0 mph 25.3 mph N/A   Overcast
11:53 PM 75.9 °F - 64.0 °F 67% 29.70 in 10.0 mi South 11.5 mph - N/A   Overcast